Regional Weather Roundup
Issued by NWS

Home | Current Version | Previous Version | Graphics & Text | Print | Product List | Glossary On
Versions: 1 2 3 4 5 6 7 8 9 10 11 12 13 14 15 16 17 18 19 20 21 22 23 24 25 26 27 28 29 30 31 32 33 34 35 36 37 38 39 40 41 42 43 44 45 46 47 48 49 50
000
ASUS43 KLMK 201610
RWRKY
KENTUCKY REGIONAL WEATHER ROUNDUP
NATIONAL WEATHER SERVICE LOUISVILLE KY
1100 AM EST SAT JAN 20 2018

NOTE "FAIR" INDICATES FEW OR NO CLOUDS BELOW 12,000 FEET
WITH NO SIGNIFICANT WEATHER AND/OR OBSTRUCTIONS TO VISIBILITY.

KYZ001>023-026-027-061>063-070>075-201700-
WESTERN AND SOUTH CENTRAL KENTUCKY

CITY           SKY/WX    TMP DP  RH WIND       PRES   REMARKS
PADUCAH        CLOUDY    44  32  62 SW8       30.16R
HENDERSON      FAIR      43  29  57 SW15      30.14S
OWENSBORO      PTSUNNY   42  28  57 SW12      30.16S
HOPKINSVILLE   CLOUDY    46  26  46 S8        30.21R
BOWLING GREEN  CLOUDY    46  27  47 SW13G22   30.22R
GLASGOW        CLOUDY    47  32  54 SW9       30.21S
$$

KYZ024-025-028>034-038-045-046-053-201700-
NORTH CENTRAL KENTUCKY

CITY           SKY/WX    TMP DP  RH WIND       PRES   REMARKS
LOUISVILLE/SDF PTSUNNY   47  22  37 SW14      30.15S
LOUISVILLE/LOU FAIR      45  23  42 SW13      30.16S
FORT KNOX      MOSUNNY   45  24  43 SW12G22   30.18R
$$

KYZ035>037-039>044-047>052-055>060-089>105-201700-
NORTHEAST KENTUCKY

CITY           SKY/WX    TMP DP  RH WIND       PRES   REMARKS
LEXINGTON      FAIR      45  28  51 SW14G22   30.17R
COVINGTON      PTSUNNY   41  25  53 SW12      30.11R
FRANKFORT      FAIR      46  23  40 SW15      30.15R
$$

KYZ054-064>069-076>088-106>120-201700-
SOUTHEAST KENTUCKY

CITY           SKY/WX    TMP DP  RH WIND       PRES   REMARKS
JACKSON        CLOUDY    49  33  54 SW10G17   30.18S
LONDON         CLOUDY    48  31  51 SW9       30.22S
SOMERSET       CLOUDY    46  32  57 S5        30.23F
MIDDLESBORO    CLOUDY    40  27  60 CALM      30.28R
MONTICELLO     CLOUDY    50  32  50 W16       30.25R
$$





USA.gov is the U.S. government's official web portal to all federal, state and local government web resources and services.